Погода в Пристани

Россия / Свердловская область     56°26′43″N   58°33′39″E
темп.,
°C
ветер,
м/с
пор.,
м/с
влажн.,
%
обл.,
%
осадки,
мм/ч
давл.,
гПа
погр.,
м
14 апреля, ср
ср1423:00+7ююз2599100 0.0 1035123
02:00+6юз3699100 0.0 1034214
05:00+5юз2499100 0.0 1035188
08:00+5ю23100100 0.0 103491
11:00+7ююз2499100 0.0 1033193
14:00+9юз349197 0.0 1032339
17:00+12зюз238525 0.0 1030323
20:00+9ююз11955 0.0 102910
15 апреля, чт
чт1523:00+7ююз119614 0.0 102910
02:00+6ююз229771 0.0 102812
05:00+6ююз239994 0.0 102768
08:00+7ююз249666 0.0 1026144
11:00+12юз58615 0.0 1025540
14:00+15зюз68495 0.0 1023994
17:00+16зюз58513 0.0 10211230
20:00+12юз37740 0.0 1020105
16 апреля, пт
пт1623:00+9зюз24820 0.0 102050
02:00+8з22863 0.0 102012
05:00+7с3795100 0.0 1021275
08:00+6св5888100 0.0 1023678
11:00+3всв61194100 0.0 1025531
14:00+3всв5891100 0.2 1026591
17:00+6вюв466355 0.3 1025895
20:00+4юв12785 0.0 102528
17 апреля, сб
сб1723:00+2в11825 0.0 102511
02:00+1св11813 0.0 102510
05:000с22775 0.0 102513
08:00+3с24650 0.0 1025218
11:00+6ссз46431 0.0 10241204
14:00+8сз564598 0.0 10231834
17:00+8сз564374 0.0 10221842
20:00+5ссз49545 0.0 1023340
18 апреля, вс
вс1823:00+2зсз38705 0.0 1023192
02:00+2сз511775 0.0 1022645
05:000сз411885 0.0 1023460
08:00+1сз6107615 0.0 1023950
11:00+2с5663100 0.2 10241159
14:00+3с6831100 0.1 10252518
17:00+2св673790 0.1 10282030
20:00−1св58512 0.0 1031754